Location: Marcé
(47.5801°N, 0.3280°W)
Time: 06:47:26
(UTC+01:00)

Courier 1B - Pass Details

Date: 09 December 2021
Orbit: 962 x 1209 km, 28.3° (Epoch: 23 January)

Event Time Altitude Azimuth Distance (km) Brightness Sun altitude
Rises 15:44:44 0° 221° (SW) 4,102 13.2 9.8°
Reaches altitude 10° 15:49:06 10° 200° (SSW) 3,126 11.8 9.3°
Maximum altitude 15:53:04 15° 169° (S) 2,752 10.5 8.9°
Drops below altitude 10° 15:56:59 10° 138° (SE) 3,074 10.2 8.4°
Sets 16:01:13 0° 116° (ESE) 3,992 10.5 7.9°
